This demonstration page uses our WeatherBlox Daily Observations layout. Learn more.

Left ArrowRight Arrow

Hourly Observations for May 16, 2021

Temp ( °F °C ) Dew Point ( °F °C ) Humidity (%) Winds ( mph kmh ) Pressure ( in mb ) Visibility ( mi km ) Precip ( " mm )
12:53 am 00:53 Clear 66 18.9 60 15.6 81 81 ESE 8 13 29.83 1010 10 16 0.00 0.00
1:11 am 01:11 Mostly Cloudy 66 18.9 60 15.6 81 81 ESE 9 15 29.85 1011 10 16 0.00 0.00
1:53 am 01:53 Mostly Cloudy 66 18.9 62 16.7 87 87 SE 9 15 29.84 1010 10 16 0.00 0.00
2:12 am 02:12 Partly Cloudy 66 18.9 63 17.2 90 90 SE 7 11 29.87 1012 10 16 0.00 0.00
2:53 am 02:53 Partly Cloudy 66 18.9 62 16.7 87 87 SE 9 15 29.82 1010 10 16 0.00 0.00
3:14 am 03:14 Mostly Cloudy 66 18.9 61 16.1 84 84 SE 14 22 29.84 1011 10 16 0.00 0.00
3:25 am 03:25 Partly Cloudy 66 18.9 61 16.1 84 84 SE 13 20 29.83 1010 10 16 0.00 0.00
3:53 am 03:53 Clear 65 18.3 61 16.1 87 87 SE 9 15 29.80 1009 10 16 0.00 0.00
4:53 am 04:53 Mostly Clear 63 17.2 61 16.1 93 93 SE 12 19 29.79 1009 10 16 0.00 0.00
5:53 am 05:53 Clear 62 16.7 60 15.6 93 93 ESE 7 11 29.80 1009 10 16 0.00 0.00
6:53 am 06:53 Clear 62 16.7 60 15.6 93 93 ESE 10 17 29.80 1009 10 16 0.00 0.00
7:53 am 07:53 Sunny 64 17.8 60 15.6 87 87 SE 13 20 29.83 1010 10 16 0.00 0.00
8:53 am 08:53 Sunny 68 20 61 16.1 78 78 SE 15 24 29.83 1010 10 16 0.00 0.00
9:53 am 09:53 Sunny 72 22.2 60 15.6 66 66 S 14 22 29.82 1010 10 16 0.00 0.00
10:53 am 10:53 Sunny 76 24.4 59 15 56 56 S 7 11 29.81 1010 10 16 0.00 0.00
11:53 am 11:53 Sunny 80 26.7 58 14.4 47 47 S 8 13 29.79 1009 10 16 0.00 0.00
12:53 pm 12:53 Sunny 83 28.3 54 12.2 37 37 S 9 15 29.77 1008 10 16 0.00 0.00
1:14 pm 13:14 Mostly Sunny 84 28.9 51 10.6 32 32 W 5 7 29.69 1006 10 16 0.00 0.00
1:53 pm 13:53 Sunny 85 29.4 52 11.1 32 32 Calm 29.75 1007 10 16 0.00 0.00
2:53 pm 14:53 Sunny 90 32.2 50 10 25 25 VRB 3 6 29.72 1007 10 16 0.00 0.00
3:53 pm 15:53 Sunny 91 32.8 46 7.8 21 21 undefined N/A 29.69 1005 10 16 0.00 0.00
4:53 pm 16:53 Sunny 93 33.9 45 7.2 19 19 SSW 15 24 29.66 1004 10 16 0.00 0.00
5:53 pm 17:53 Mostly Sunny 93 33.9 44 6.7 18 18 SW 7 11 29.64 1004 10 16 0.00 0.00
6:53 pm 18:53 Sunny 95 35 38 3.3 14 14 S 10 17 29.62 1003 10 16 0.00 0.00
7:15 pm 19:15 Sunny 94 34.4 35 1.7 13 13 W 8 13 29.50 999 10 16 0.00 0.00
7:53 pm 19:53 Sunny 93 33.9 36 2.2 13 13 SW 8 13 29.61 1003 10 16 0.00 0.00
8:53 pm 20:53 Clear 87 30.6 39 3.9 18 18 SSW 7 11 29.62 1003 10 16 0.00 0.00
9:53 pm 21:53 Clear 82 27.8 41 5 23 23 SSW 7 11 29.64 1004 10 16 0.00 0.00
10:53 pm 22:53 Clear 79 26.1 63 17.2 58 58 SSE 21 33 29.67 1005 10 16 0.00 0.00
11:53 pm 23:53 Clear 77 25 64 17.8 64 64 SSE 24 39 29.67 1005 10 16 0.00 0.00

Powered by AerisWeather